Welcome to the New NWS' Forecast!
Most changes are behind the scenes, but click here for differences you might notice.

Regional Weather Roundup (RWR)

Issued by Gray - Portland, ME (GYX)

                            
126 
ASUS41 KGYX 250610
RWRGYX
WEATHER ROUNDUP FOR MAINE AND NEW HAMPSHIRE
NATIONAL WEATHER SERVICE GRAY ME
200 AM EDT SUN JUN 25 2017

MEZ002-005-006-010-012-015-018-020-021-024-026-027-029-250700-
MAINE
  
CITY           SKY/WX    TMP DP  RH WIND       PRES   REMARKS
PORTLAND       CLEAR     68  51  54 W7        29.81R                  
6HR MIN TEMP:  67; 6HR MAX TEMP:  79;                                

SANFORD        CLEAR     66  52  60 SW8       29.84R                  
BAR HARBOR     MOCLDY    60  56  86 SW3       29.76S                  
WISCASSET      PTCLDY    60  58  92 CALM      29.81R                  
6HR MIN TEMP:  59; 6HR MAX TEMP:  70;                                

ROCKLAND       CLEAR     63  56  78 W5        29.78R                  
FRYEBURG       CLEAR     55  54  96 NW3       29.83R                  
6HR MIN TEMP:  55; 6HR MAX TEMP:  74;                                

AUGUSTA        CLEAR     68  53  58 W8        29.80R                  
6HR MIN TEMP:  67; 6HR MAX TEMP:  76;                                

WATERVILLE     CLEAR     63  55  75 W7        29.77R                  
BANGOR         CLEAR     60  55  83 SW3       29.76R                  
6HR MIN TEMP:  60; 6HR MAX TEMP:  75;                                

GREENVILLE       N/A     54  53  97 CALM      29.77R                  
6HR MIN TEMP:  54; 6HR MAX TEMP:  67; 6HR PCP:  0.01;                

MILLINOCKET    CLEAR     57  57 100 CALM      29.75S                  
6HR MIN TEMP:  57; 6HR MAX TEMP:  69; 6HR PCP: TRACE;                

HOULTON        CLEAR     61  55  81 W3        29.71R                  
6HR MIN TEMP:  59; 6HR MAX TEMP:  71; 6HR PCP: TRACE;                

PRESQUE ISLE   PTCLDY    59  54  83 W8        29.71R                  
6HR MIN TEMP:  59; 6HR MAX TEMP:  71; 6HR PCP: TRACE;                

FRENCHVILLE    CLEAR     54  48  80 W10       29.69R                  
6HR MIN TEMP:  54; 6HR MAX TEMP:  64;                                

CARIBOU        CLEAR     56  52  86 SW5       29.69R                  
6HR MIN TEMP:  55; 6HR MAX TEMP:  70; 6HR PCP:  0.06;                

$$

NHZ002-005-008-009-011-012-014-250700-
NEW HAMPSHIRE
  
CITY           SKY/WX    TMP DP  RH WIND       PRES   REMARKS
PORTSMOUTH     PTCLDY    67  55  65 SW6       29.83R                  
ROCHESTER      PTCLDY    68  50  52 VRB5      29.84R                  
6HR MIN TEMP:  66; 6HR MAX TEMP:  78;                                

NASHUA         CLOUDY    71  55  56 W5        29.87R                  
MANCHESTER     CLOUDY    71  51  49 VRB3      29.84S                  
6HR MIN TEMP:  70; 6HR MAX TEMP:  81;                                

CONCORD        CLOUDY    69  49  48 W6        29.86R                  
6HR MIN TEMP:  69; 6HR MAX TEMP:  80;                                

LACONIA        PTCLDY   N/A N/A N/A SW10      29.86R                  
PLYMOUTH       FAIR      55  53  91 E3        29.85R                  
BERLIN         CLEAR     60  53  77 CALM      29.84S                  
6HR MIN TEMP:  58; 6HR MAX TEMP:  68; 6HR PCP: TRACE;                

WHITEFIELD     CLEAR     57  51  80 SW3       29.86R                  
6HR MIN TEMP:  55; 6HR MAX TEMP:  73;                                

JAFFREY        CLOUDY    67  54  63 CALM      29.91R                  
6HR MIN TEMP:  64; 6HR MAX TEMP:  75;                                

KEENE          PTCLDY    60  58  92 CALM      29.90R                  
LEBANON        CLEAR     64  50  60 SW7       29.86S                  
6HR MIN TEMP:  56; 6HR MAX TEMP:  77;                                

MT WASHINGTON  FOG       41  41 100 W48G58      N/A  VSB 0            
6HR MIN TEMP:  42; 6HR MAX TEMP:  48;                                

$$

VTZ005-007-008-250700-
VERMONT
  
CITY           SKY/WX    TMP DP  RH WIND       PRES   REMARKS
ST JOHNSBURY     N/A     57  56  96 MISG      29.84R                  
MONTPELIER     CLEAR     58  52  80 S5        29.90S                  
BURLINGTON     MOCLDY    63  54  72 S3        29.85S                  
$$

MAZ007-012-024-CTZ003-RIZ002-NYZ038-NYZ072-250700-
SOUTHERN NEW ENGLAND AND NY
  
CITY           SKY/WX    TMP DP  RH WIND       PRES   REMARKS
BOSTON         MOCLDY    74  54  49 W12       29.86R                  
WORCESTER      CLOUDY    66  52  60 W10       29.91S                  
NANTUCKET        N/A     67  59  75 W9        29.89R                  
PROVIDENCE     PTCLDY    67  59  75 SW3       29.89R                  
HARTFORD       CLOUDY    70  56  61 NW3       29.91R                  
ALBANY         PTCLDY    60  54  80 SW5       29.92S                  
NEW YORK CITY  PTCLDY    73  61  65 NW5       29.91S                  
$$

ANZ081-ANZ082-ANZ150-NHZ014-MEZ023>029-250700-
COASTAL MARINE OBSERVATIONS
  
STATION/POSITION TIME  TEMP    WIND        PRES    WAVE
                       AIR SEA DIR/SP/G            HT/PER
                 (UTC) (F)     (DEG/KT/KT) (MB)    (FT/S)
MATINICUS ROCK   0600   61     270/ 14/ 14 1008.2R
ISLE OF SHOALS   0600   71     260/ 16/ 16 1010.1R
JEFFREYS LEDGE   0506      59                N/A     3/ 6
CASHES LEDGE BUO 0450   63 60              1008.3    3/ 7
GEORGES BANK BUO 0450   56 52              1010.1    8/ 8
$$

.............KEY..............
   WCI - WIND CHILL
   TC  - TEMPERATURE IN CELSIUS
   VSB - VISIBILITY IN MILES
   HX  - HEAT INDEX
   FAIR- INDICATES FEW OR NO CLOUDS BELOW 12,000 FT, WITH NO 
         SIGNIFICANT WEATHER AND/OR OBSTRUCTIONS TO VISIBILITY.